Regional Weather Roundup
Issued by NWS

Home | Current Version | Previous Version | Graphics & Text | Print | Product List | Glossary On
Versions: 1 2 3 4 5 6 7 8 9 10 11 12 13 14 15 16 17 18 19 20 21 22 23 24 25 26 27 28 29 30 31 32 33 34 35 36 37 38 39 40 41 42 43 44 45 46 47 48 49 50
000
ASUS43 KMPX 101601
RWRMN
WEATHER ROUNDUP FOR MINNESOTA
NATIONAL WEATHER SERVICE TWIN CITIES/CHANHASSEN MN
1100 AM CDT THU JUL 10 2014


NOTE: "FAIR" INDICATES FEW OR NO CLOUDS BELOW 12,000 FEET WITH NO
SIGNIFICANT WEATHER AND/OR OBSTRUCTIONS TO VISIBILITY. N/A MEANS
CURRENT SKY AND/OR WEATHER CONDITIONS ARE NOT AVAILABLE.

MNZ060>063-068>070-101700-
   Twin Cities Metro

CITY           SKY/WX    TMP DP  RH WIND       PRES   REMARKS
TWIN CITIES    SUNNY     76  59  55 S7        30.05S
ST PAUL        SUNNY     75  61  61 SE9       30.06S
CRYSTAL        SUNNY     78  57  48 S7        30.04R
BLAINE         MOSUNNY   77  61  57 SE8       30.05S
LAKEVILLE      SUNNY     75  63  64 CALM      30.06S
EDEN PRAIRIE   MOSUNNY   78  62  57 SE6       30.04S
SOUTH ST PAUL  SUNNY     74  60  61 SE7       30.06S
LAKE ELMO      FAIR      75  63  64 SE5       30.07S
$$
MNZ001>005-007-008-013>017-022>024-027-028-101700-
   Northwest Minnesota

CITY           SKY/WX    TMP DP  RH WIND       PRES   REMARKS
BEMIDJI        SUNNY     73  53  50 SW7       30.01F
HALLOCK        SUNNY     75  57  53 S16       29.91F
ROSEAU         SUNNY     73  57  56 S14       29.96F
WARROAD        SUNNY     72  57  60 S10       29.98S
THIEF RVR FALL SUNNY     73  55  53 S13       29.96F
CROOKSTON      SUNNY     73  57  56 S13       29.95F
FOSSTON        SUNNY     73  54  49 S12       29.99F
DETROIT LAKES  SUNNY     73  55  53 S10       30.01S
PARK RAPIDS    SUNNY     74  54  49 S10       30.02F
$$
MNZ006-009>011-018-025>026-101700-
   North Central Minnesota

CITY           SKY/WX    TMP DP  RH WIND       PRES   REMARKS
BAUDETTE       SUNNY     73  55  53 S7        30.00S
FLAG ISLAND    SUNNY     70  61  73 S9        29.96F
INTL FALLS     SUNNY     72  52  49 S9G16     30.01S
BIG FORK       SUNNY     73  55  53 S9        30.03S
LONGVILLE      SUNNY     73  55  53 SW9       30.03S
GRAND RAPIDS   SUNNY     72  54  53 S7        30.04S
CRANE LAKE     SUNNY     72  55  56 S9        30.04S
ORR            SUNNY     72  52  49 S7G16     30.01S
COOK           MOSUNNY   72  54  53 SE7       30.04S
$$
MNZ012-019>021-037-101700-
   Northeast Minnesota

CITY           SKY/WX    TMP DP  RH WIND       PRES   REMARKS
DULUTH         MOSUNNY   71  57  61 S10       30.07R
ELY            SUNNY     72  54  53 SW10      30.05F
HIBBING        PTSUNNY   74  52  46 S9G17     30.04S
EVELETH        SUNNY     72  54  53 S12       30.06S
DULUTH HARBOR  SUNNY     61  55  82 NE7       30.07S
TWO HARBORS    SUNNY     68  55  64 S6        30.06S
SILVER BAY     SUNNY     66  57  72 S6        30.06S
GRAND MARAIS     N/A     55  49  80 CALM      30.09S
G MARAIS ARPRT MOSUNNY   68  52  56 S7        30.11S
$$
MNZ029>031-032-039>041-046>048-054>057-064-101700-
   West Central Minnesota

CITY           SKY/WX    TMP DP  RH WIND       PRES   REMARKS
FERGUS FALLS   SUNNY     75  52  43 S14       29.98F
WHEATON        SUNNY     73  61  64 SE7       29.98F
MORRIS         SUNNY     75  63  64 SE8       29.98F
ALEXANDRIA     SUNNY     75  54  47 SE12      30.03F
WADENA         SUNNY     73  55  53 S8        30.02S
GLENWOOD       SUNNY     75  57  53 S10       30.03S
APPLETON       SUNNY     79  61  53 S9        29.98F
BENSON         SUNNY     77  63  61 S6        30.00S
ORTONVILLE     SUNNY     75  61  60 SE8       29.97F
MADISON        SUNNY     79  64  61 S10       29.98F
WILLMAR        FAIR      79  57  47 SE7       30.03F
$$
MNZ033>034-036-042>043-049>051-058-059-101700-
   Central Minnesota

CITY           SKY/WX    TMP DP  RH WIND       PRES   REMARKS
ST CLOUD       SUNNY     79  55  43 S8        30.04S
SAUK CENTRE    FAIR      76  57  52 SE7       30.03F
PAYNESVILLE    SUNNY     73  57  57 E8        30.04S
AITKIN         SUNNY     75  55  50 SW5       30.03S
PINE RIVER     SUNNY     73  55  53 S6        30.07R
BRAINERD       SUNNY     80  52  37 SW8       30.05S
STAPLES          N/A     73  54  49 SE7       30.03S
LONG PRAIRIE   FAIR      73  55  53 SE9       30.04S
LITTLE FALLS   MOSUNNY   77  52  41 SE9       30.04S
LITCHFIELD     SUNNY     77  64  65 S5        30.04S
BUFFALO        MOSUNNY   76  56  50 SE6       30.05S
MAPLE LAKE     MOSUNNY   77  62  58 SE5       30.05S
$$
MNZ037-044-045-052-053-101700-
   East Central Minnesota

CITY           SKY/WX    TMP DP  RH WIND       PRES   REMARKS
PRINCETON      SUNNY     81  57  44 S7        30.05S
MORA           SUNNY     73  55  53 CALM      30.07S
CAMBRIDGE      SUNNY     79  61  53 S7        30.04R
RUSH CITY      SUNNY     74  59  60 S3        30.06S
MOOSE LAKE     SUNNY     73  55  53 S6        30.04S
HINCKLEY       FAIR      73  61  64 S7        30.06S
CLOQUET        SUNNY     73  55  53 SE7       30.06S
MCGREGOR       SUNNY     72  55  56 SW7       30.05S
$$
MNZ071>073-080-081-089-090-097-098-101700-
   Southwest Minnesota

CITY           SKY/WX    TMP DP  RH WIND       PRES   REMARKS
MONTEVIDEO     SUNNY     79  63  57 S9        30.01S
GRANITE FALLS  SUNNY     78  61  57 SE8       30.02F
CANBY          SUNNY     79  60  53 S12G21    29.99F
MARSHALL       SUNNY     79  61  53 S16       29.99F
REDWOOD FALLS  SUNNY     80  60  50 S10       30.01F
OLIVIA         SUNNY     77  61  57 S7        30.01F
PIPESTONE      SUNNY     75  61  60 S17       30.02F
WINDOM         SUNNY     77  61  57 S17       30.05S
WORTHINGTON    SUNNY     75  63  64 SW16      30.06S
JACKSON        SUNNY     77  61  57 S15       30.07S
TRACY          SUNNY     77  62  59 S13G20    30.02F
SLAYTON        MOSUNNY   75  60  58 S13G21    30.04F
$$
MNZ065>067-074>077-082>085-091>093-101700-
   South Central Minnesota

CITY           SKY/WX    TMP DP  RH WIND       PRES   REMARKS
MANKATO        SUNNY     77  61  57 S8        30.05F
NEW ULM        SUNNY     79  63  57 S10       30.04R
ST JAMES       SUNNY     79  61  53 S14       30.06R
FAIRMONT       SUNNY     77  59  53 SW13      30.06S
GLENCOE        SUNNY     78  61  55 S6        30.04S
FARIBAULT      SUNNY     81  61  50 SW7       30.07S
OWATONNA       SUNNY     79  63  57 SW8       30.07S
WASECA         SUNNY     77  57  50 SW12      30.09R
ALBERT LEA     SUNNY     77  61  57 S7        30.09R
$$
MNZ078>079-086>088-094>096-101700-
   Southeast Minnesota

CITY           SKY/WX    TMP DP  RH WIND       PRES   REMARKS
ROCHESTER      SUNNY     75  63  66 SW12      30.11R
RED WING       SUNNY     75  63  64 SE7       30.06S
STANTON        MOSUNNY   77  63  62 S5        30.06S
DODGE CENTER   SUNNY     75  64  69 SW7       30.09S
WINONA         SUNNY     73  61  64 SE5       30.10S
AUSTIN         SUNNY     77  61  57 SW10      30.09S
PRESTON        PTSUNNY   73  63  71 S6        30.12S
$$
ABBREVIATIONS USED IN REMARKS
   TC - TEMPERATURES IN CELSIUS
  WCI - WIND CHILL INDEX
   HX - HEAT INDEX
  VSB - VISIBILITY
$$


USA.gov is the U.S. government's official web portal to all federal, state and local government web resources and services.